Location: Newark
(54.0500°N, 12.8333°E)
Time: 13:58:10
(UTC+00:00)

Vanguard 1 - Visible Passes

Search period start: 17 January 2021 00:00
Search period end: 27 January 2021 00:00
Orbit: 649 x 3834 km, 34.3° (Epoch: 16 January)

Date Brightness Start Highest point End Pass type
(mag) Time Alt. Az. Time Alt. Az. Time Alt. Az.
17 Jan 13.3 16:56:53 10° WSW 17:16:47 39° SSW 17:31:14 10° SE visible
17 Jan 13.2 19:23:23 10° W 19:37:45 25° SW 19:46:35 14° S visible
18 Jan 13.4 17:17:47 10° WSW 17:37:16 38° SSW 17:51:26 10° SE visible
18 Jan 13.4 19:45:13 10° W 19:57:42 21° SW 20:06:44 11° S visible
19 Jan 13.4 17:38:49 10° W 17:57:39 35° SSW 18:11:27 10° SSE visible
19 Jan 13.5 20:07:42 10° W 20:17:31 16° SW 20:25:25 10° SSW visible
20 Jan 13.6 15:35:02 10° WSW 15:55:40 42° S 16:12:46 10° ESE visible
20 Jan 13.5 18:00:02 10° W 18:17:55 31° SSW 18:31:14 10° SSE visible
20 Jan 13.7 20:31:45 10° WSW 20:37:13 12° SW 20:42:03 10° SW visible
21 Jan 13.6 15:55:45 10° WSW 16:16:15 41° S 16:33:07 10° SE visible
21 Jan 13.5 18:21:27 10° W 18:38:03 28° SW 18:50:43 10° SSE visible
22 Jan 13.7 16:16:37 10° WSW 16:36:47 40° SSW 16:53:21 10° SE visible
22 Jan 13.7 18:43:09 10° W 18:58:03 23° SW 19:09:47 10° S visible
23 Jan 13.7 16:37:36 10° W 16:57:13 37° SSW 17:13:22 10° SE visible
23 Jan 13.8 19:05:24 10° W 19:17:55 19° SW 19:28:13 10° SSW visible
24 Jan 13.8 16:58:44 10° W 17:17:33 33° SSW 17:33:09 10° SSE visible
24 Jan 14.0 19:28:41 10° W 19:37:40 14° SW 19:45:29 10° SSW visible
25 Jan 13.8 17:20:04 10° W 17:37:46 29° SW 17:52:37 10° SSE visible
26 Jan 13.9 17:41:41 10° W 17:57:51 25° SW 18:11:41 10° S visible
